GW3555 Weather Reports


Display with metric or nautical units.
time (UTC)temp
F
wind
direction
speed
MPH
gust
MPH
rain 1hr
in
rain 24hr
in
rain mn
in
humidity
%
barometer
mb
20260904222029 65 45 1.0 4.0 0.00 0.00 0.00 48 1014.5
20260904221638 65 165 1.0 6.0 0.00 0.00 0.00 49 1014.3
20260904221031 65 62 2.0 6.0 0.00 0.00 0.00 51 1014.2
20260904220526 64 30 1.0 5.0 0.00 0.00 0.00 53 1014.2
20260904220133 64 81 1.0 5.0 0.00 0.00 0.00 50 1014.4
20260904215534 64 32 1.0 6.0 0.00 0.00 0.00 49 1014.4
20260904215037 65 208 0.0 6.0 0.00 0.00 0.00 50 1014.3
20260904214638 66 352 1.0 5.0 0.00 0.00 0.00 48 1014.4
20260904214028 66 178 1.0 6.0 0.00 0.00 0.00 48 1014.4
20260904213541 66 187 3.0 6.0 0.00 0.00 0.00 45 1014.4
20260904213132 65 24 0.0 4.0 0.00 0.00 0.00 48 1014.2
20260904212529 64 352 1.0 3.0 0.00 0.00 0.00 50 1014.3
20260904212024 64 161 0.0 2.0 0.00 0.00 0.00 50 1014.4
20260904211640 63 44 0.0 7.0 0.00 0.00 0.00 51 1014.4
20260904211028 63 5 0.0 7.0 0.00 0.00 0.00 52 1014.4
20260904210539 63 157 0.0 2.0 0.00 0.00 0.00 55 1014.3
20260904210125 63 161 0.0 3.0 0.00 0.00 0.00 54 1014.3
20260904205530 63 102 1.0 6.0 0.00 0.00 0.00 54 1014.2
20260904205031 63 229 2.0 6.0 0.00 0.00 0.00 55 1014.2
20260904204630 63 104 1.0 7.0 0.00 0.00 0.00 54 1014.3
20260904204038 63 178 0.0 2.0 0.00 0.00 0.00 58 1014.1
20260904203540 63 204 0.0 4.0 0.00 0.00 0.00 55 1014.2
20260904203134 63 94 2.0 4.0 0.00 0.00 0.00 55 1014.3
20260904202523 64 212 1.0 7.0 0.00 0.00 0.00 54 1014.3
20260904202044 64 9 2.0 9.0 0.00 0.00 0.00 57 1014.2
20260904201621 63 130 3.0 9.0 0.00 0.00 0.00 54 1014.0
20260904201037 63 225 2.0 4.0 0.00 0.00 0.00 55 1014.2
20260904200536 62 118 0.0 2.0 0.00 0.00 0.00 59 1014.2
20260904200135 62 22 0.0 4.0 0.00 0.00 0.00 59 1014.4
20260904195527 62 134 1.0 4.0 0.00 0.00 0.00 60 1014.2
20260904195024 63 100 1.0 4.0 0.00 0.00 0.00 55 1014.2
20260904194635 63 229 1.0 6.0 0.00 0.00 0.00 56 1014.3
20260904194045 63 15 2.0 6.0 0.00 0.00 0.00 56 1014.4
20260904193548 62 22 1.0 6.0 0.00 0.00 0.00 60 1014.4
20260904193131 62 182 0.0 6.0 0.00 0.00 0.00 63 1014.5
20260904192536 62 265 1.0 4.0 0.00 0.00 0.00 62 1014.6
20260904192045 62 32 0.0 5.0 0.00 0.00 0.00 59 1014.5
20260904191626 61 67 1.0 5.0 0.00 0.00 0.00 65 1014.4
20260904191025 60 10 2.0 4.0 0.00 0.00 0.00 64 1014.4
20260904190537 60 342 2.0 4.0 0.00 0.00 0.00 61 1014.4
20260904190128 61 73 1.0 4.0 0.00 0.00 0.00 67 1014.5
20260904185535 60 5 1.0 4.0 0.00 0.00 0.00 68 1014.4
20260904185025 60 16 1.0 4.0 0.00 0.00 0.00 69 1014.5
20260904184603 60 348 0.0 4.0 0.00 0.00 0.00 71 1014.5
20260904184035 59 269 2.0 4.0 0.00 0.00 0.00 70 1014.6
20260904183525 58 10 1.0 3.0 0.00 0.00 0.00 73 1014.6
20260904183138 58 34 0.0 2.0 0.00 0.00 0.00 74 1014.6
20260904182540 58 15 0.0 3.0 0.00 0.00 0.00 72 1014.5
20260904182030 58 21 0.0 3.0 0.00 0.00 0.00 74 1014.5
20260904181603 58 43 0.0 2.0 0.00 0.00 0.00 77 1014.5
20260904181025 58 96 0.0 1.0 0.00 0.00 0.00 76 1014.5
20260904180548 58 71 0.0 3.0 0.00 0.00 0.00 76 1014.7
20260904180145 58 84 0.0 3.0 0.00 0.00 0.00 77 1014.7
20260904175531 58 80 0.0 3.0 0.00 0.00 0.00 78 1014.6
20260904175030 58 159 0.0 3.0 0.00 0.00 0.00 76 1014.6
20260904174627 58 184 1.0 3.0 0.00 0.00 0.00 76 1014.8
20260904174036 57 82 0.0 2.0 0.00 0.00 0.00 78 1014.7
20260904173527 56 88 1.0 2.0 0.00 0.00 0.00 77 1014.6
20260904173125 55 117 0.0 0.0 0.00 0.00 0.00 82 1014.4
20260904172533 55 64 0.0 1.0 0.00 0.00 0.00 82 1014.4
20260904172024 54 330 0.0 1.0 0.00 0.00 0.00 84 1014.4
20260904171621 54 350 0.0 2.0 0.00 0.00 0.00 82 1014.2
20260904171044 54 338 0.0 2.0 0.00 0.00 0.00 85 1014.1
20260904170543 54 55 0.0 1.0 0.00 0.00 0.00 87 1014.1
20260904170134 53 153 0.0 1.0 0.00 0.00 0.00 89 1014.2
20260904165528 53 109 0.0 3.0 0.00 0.00 0.00 89 1014.2
20260904165034 52 92 1.0 3.0 0.00 0.00 0.00 89 1014.3
20260904164642 52 178 0.0 0.0 0.00 0.00 0.00 90 1014.2
20260904164028 52 267 0.0 0.0 0.00 0.00 0.00 91 1014.2
20260904163526 51 315 0.0 0.0 0.00 0.00 0.00 92 1014.2
20260904163122 51 56 0.0 0.0 0.00 0.00 0.00 93 1014.1
20260904162528 51 42 0.0 0.0 0.00 0.00 0.00 94 1014.2
20260904162025 51 352 0.0 0.0 0.00 0.00 0.00 93 1014.2
20260904161610 51 178 0.0 0.0 0.00 0.00 0.00 94 1014.2
20260904161024 51 179 0.0 0.0 0.00 0.00 0.00 94 1014.3
20260904160536 50 238 0.0 0.0 0.00 0.00 0.00 94 1014.3
20260904160141 50 238 0.0 1.0 0.00 0.00 0.00 95 1014.3
20260904155519 50 226 0.0 3.0 0.00 0.00 0.00 95 1014.2
20260904155025 50 245 0.0 4.0 0.00 0.00 0.00 95 1014.2
20260904154658 50 153 0.0 4.0 0.00 0.00 0.00 95 1014.2
20260904154028 50 173 1.0 4.0 0.00 0.00 0.00 96 1014.1
20260904153530 50 204 0.0 1.0 0.00 0.00 0.00 96 1014.2
20260904153110 50 211 0.0 2.0 0.00 0.00 0.00 96 1014.1
20260904152536 50 230 0.0 2.0 0.00 0.00 0.00 96 1014.1
20260904152024 49 247 0.0 0.0 0.00 0.00 0.00 96 1014.0
20260904151633 49 247 0.0 0.0 0.00 0.00 0.00 96 1014.1
20260904151040 49 254 0.0 0.0 0.00 0.00 0.00 96 1014.0
20260904150533 49 300 0.0 2.0 0.00 0.00 0.00 96 1014.0
20260904150134 49 300 0.0 3.0 0.00 0.00 0.00 97 1013.9
20260904145533 49 246 0.0 3.0 0.00 0.00 0.00 97 1013.9
20260904145023 49 225 0.0 0.0 0.00 0.00 0.00 97 1013.9
20260904144628 49 263 0.0 0.0 0.00 0.00 0.00 97 1013.9
20260904144026 49 263 0.0 0.0 0.00 0.00 0.00 97 1013.7
20260904143531 49 263 0.0 0.0 0.00 0.00 0.00 96 1013.6
20260904143130 49 263 0.0 0.0 0.00 0.00 0.00 96 1013.6
20260904142531 49 263 0.0 0.0 0.00 0.00 0.00 97 1013.5
20260904142025 49 263 0.0 0.0 0.00 0.00 0.00 97 1013.5
20260904141602 48 263 0.0 0.0 0.00 0.00 0.00 96 1013.4
20260904141028 48 271 0.0 0.0 0.00 0.00 0.00 96 1013.4
20260904140536 48 271 0.0 0.0 0.00 0.00 0.00 96 1013.4
20260904140220 48 271 0.0 0.0 0.00 0.00 0.00 96 1013.3
20260904135541 48 271 0.0 0.0 0.00 0.00 0.00 96 1013.2
20260904135042 48 271 0.0 0.0 0.00 0.00 0.00 96 1013.1
20260904134632 48 271 0.0 0.0 0.00 0.00 0.00 96 1013.0
20260904134040 48 271 0.0 0.0 0.00 0.00 0.00 96 1013.0
20260904133531 48 271 0.0 0.0 0.00 0.00 0.00 96 1012.9
20260904133134 48 271 0.0 0.0 0.00 0.00 0.00 96 1012.8
20260904132531 48 271 0.0 0.0 0.00 0.00 0.00 96 1012.9
20260904132031 48 271 0.0 0.0 0.00 0.00 0.00 96 1012.8
20260904131719 48 271 0.0 0.0 0.00 0.00 0.00 96 1012.8
20260904131017 48 271 0.0 0.0 0.00 0.00 0.00 96 1012.8
20260904130527 48 271 0.0 0.0 0.00 0.00 0.00 96 1012.7
20260904130203 48 271 0.0 0.0 0.00 0.00 0.00 96 1012.6
20260904125534 48 273 0.0 0.0 0.00 0.00 0.00 96 1012.5
20260904125037 48 254 0.0 0.0 0.00 0.00 0.00 96 1012.5
20260904124645 48 228 0.0 0.0 0.00 0.00 0.00 95 1012.5
20260904124020 48 228 0.0 0.0 0.00 0.00 0.00 95 1012.7
20260904123525 48 228 0.0 0.0 0.00 0.00 0.00 95 1012.6
20260904123133 48 228 0.0 0.0 0.00 0.00 0.00 95 1012.4
20260904122525 48 228 0.0 0.0 0.00 0.00 0.00 95 1012.4
20260904122038 48 225 0.0 0.0 0.00 0.00 0.00 95 1012.4
20260904121627 48 225 0.0 0.0 0.00 0.00 0.00 95 1012.4
20260904121037 48 225 0.0 0.0 0.00 0.00 0.00 95 1012.4
20260904120526 48 225 0.0 0.0 0.00 0.00 0.00 95 1012.3
20260904120229 48 225 0.0 0.0 0.00 0.00 0.00 95 1012.3
20260904115525 49 225 0.0 0.0 0.00 0.00 0.00 95 1012.2
20260904115034 49 225 0.0 0.0 0.00 0.00 0.00 94 1012.1
20260904114628 49 225 0.0 0.0 0.00 0.00 0.00 94 1012.0
20260904114038 49 225 0.0 0.0 0.00 0.00 0.00 94 1011.9
20260904113538 49 232 0.0 0.0 0.00 0.00 0.00 95 1011.9
20260904113115 49 279 0.0 0.0 0.00 0.00 0.00 94 1011.8
20260904112533 49 279 0.0 0.0 0.00 0.00 0.00 94 1011.7
20260904112027 49 263 0.0 0.0 0.00 0.00 0.00 94 1011.5
20260904111628 49 263 0.0 0.0 0.00 0.00 0.00 93 1011.4
20260904111028 49 263 0.0 0.0 0.00 0.00 0.00 93 1011.2
20260904110524 49 263 0.0 0.0 0.00 0.00 0.00 93 1011.1
20260904110135 49 263 0.0 0.0 0.00 0.00 0.00 93 1011.2
20260904105542 49 263 0.0 0.0 0.00 0.00 0.00 93 1010.9
20260904105025 49 263 0.0 0.0 0.00 0.00 0.00 93 1010.9
20260904104651 49 263 0.0 0.0 0.00 0.00 0.00 93 1010.8
20260904104025 49 263 0.0 0.0 0.00 0.00 0.00 92 1010.7
20260904103530 50 262 0.0 0.0 0.00 0.00 0.00 93 1010.6
20260904103158 50 251 0.0 0.0 0.00 0.00 0.00 92 1010.5
20260904102530 50 261 0.0 0.0 0.00 0.00 0.00 92 1010.7
20260904102026 50 232 0.0 3.0 0.00 0.00 0.00 92 1010.5
20260904101641 50 232 0.0 3.0 0.00 0.00 0.00 91 1010.6
20260904101041 50 250 1.0 3.0 0.00 0.00 0.00 90 1010.4
20260904100530 50 246 0.0 2.0 0.00 0.00 0.00 90 1010.4
20260904100134 50 246 0.0 2.0 0.00 0.00 0.00 90 1010.5
20260904095524 50 246 1.0 2.0 0.00 0.00 0.00 88 1010.4
20260904095042 50 246 1.0 2.0 0.00 0.00 0.00 87 1010.3
20260904094719 50 246 0.0 3.0 0.00 0.00 0.00 87 1010.3
20260904094037 50 246 1.0 3.0 0.00 0.00 0.00 87 1010.3
20260904093524 50 246 0.0 3.0 0.00 0.00 0.00 87 1010.3
20260904093132 51 242 1.0 3.0 0.00 0.00 0.00 87 1010.3
20260904092533 51 242 0.0 2.0 0.00 0.00 0.00 86 1010.2
20260904092024 51 236 1.0 2.0 0.00 0.00 0.00 87 1010.4
20260904091652 51 236 1.0 3.0 0.00 0.00 0.00 86 1010.4
20260904091038 50 242 2.0 3.0 0.00 0.00 0.00 87 1010.3
20260904090523 50 264 1.0 2.0 0.00 0.00 0.00 88 1010.2
20260904090219 50 246 1.0 3.0 0.00 0.00 0.00 87 1010.2
20260904085538 50 240 1.0 3.0 0.00 0.00 0.00 87 1010.1
20260904085037 50 232 2.0 3.0 0.00 0.00 0.00 86 1010.2
20260904084635 50 248 1.0 3.0 0.00 0.00 0.00 87 1010.3
20260904084026 50 234 1.0 3.0 0.00 0.00 0.00 87 1010.3
20260904083532 50 234 1.0 3.0 0.00 0.00 0.00 87 1010.3
20260904083154 50 242 1.0 3.0 0.00 0.00 0.00 87 1010.3
20260904082530 50 242 2.0 3.0 0.00 0.00 0.00 87 1010.3
20260904082027 50 242 1.0 2.0 0.00 0.00 0.00 88 1010.4
20260904081619 50 242 1.0 3.0 0.00 0.00 0.00 88 1010.4
20260904081034 51 242 1.0 3.0 0.00 0.00 0.00 87 1010.4
20260904080534 51 244 1.0 2.0 0.00 0.00 0.00 87 1010.6
20260904080206 51 244 0.0 2.0 0.00 0.00 0.00 88 1010.5
20260904075853 51 244 0.0 3.0 0.00 0.00 0.00 87 1010.4
20260904075029 51 244 1.0 3.0 0.00 0.00 0.00 87 1010.6
20260904074638 51 244 1.0 3.0 0.00 0.00 0.00 87 1010.4
20260904074046 51 244 2.0 3.0 0.00 0.00 0.00 86 1010.4
20260904073537 51 242 1.0 3.0 0.00 0.00 0.00 86 1010.5
20260904073103 51 232 0.0 3.0 0.00 0.00 0.00 86 1010.4
20260904072527 51 231 1.0 3.0 0.00 0.00 0.00 86 1010.5
20260904072033 52 248 0.0 2.0 0.00 0.00 0.00 86 1010.4
20260904071631 52 229 1.0 2.0 0.00 0.00 0.00 86 1010.3
20260904071029 51 250 1.0 2.0 0.00 0.00 0.00 84 1010.3
20260904070542 51 262 0.0 3.0 0.00 0.00 0.00 88 1010.4
20260904070135 51 248 0.0 3.0 0.00 0.00 0.00 89 1010.3
20260904065528 51 248 1.0 3.0 0.00 0.00 0.00 88 1010.4
20260904065038 51 235 1.0 3.0 0.00 0.00 0.00 88 1010.4
20260904064703 51 240 1.0 3.0 0.00 0.00 0.00 87 1010.3
20260904064038 51 251 1.0 2.0 0.00 0.00 0.00 87 1010.4
20260904063538 51 252 1.0 2.0 0.00 0.00 0.00 89 1010.3
20260904063133 51 252 0.0 2.0 0.00 0.00 0.00 90 1010.3
20260904062530 51 249 1.0 2.0 0.00 0.00 0.00 88 1010.4
20260904062024 51 249 1.0 3.0 0.00 0.00 0.00 88 1010.3
20260904061654 51 252 1.0 3.0 0.00 0.00 0.00 87 1010.2
20260904061035 51 247 1.0 3.0 0.00 0.00 0.00 88 1010.2
20260904060547 51 248 1.0 3.0 0.00 0.00 0.00 88 1010.2
20260904060116 51 252 1.0 3.0 0.00 0.00 0.00 89 1010.3
20260904055525 51 275 1.0 2.0 0.00 0.00 0.00 87 1010.3
20260904055036 51 242 0.0 2.0 0.00 0.00 0.00 87 1010.4
20260904054635 51 265 0.0 0.0 0.00 0.00 0.00 88 1010.2
20260904054044 51 258 0.0 0.0 0.00 0.00 0.00 90 1010.4
20260904053533 51 262 0.0 0.0 0.00 0.00 0.00 91 1010.4
20260904053144 51 258 0.0 1.0 0.00 0.00 0.00 89 1010.3
20260904052542 51 248 0.0 1.0 0.00 0.00 0.00 89 1010.4
20260904052024 51 257 0.0 0.0 0.00 0.00 0.00 88 1010.4
20260904051646 51 261 0.0 0.0 0.00 0.00 0.00 90 1010.4
20260904051117 51 261 0.0 0.0 0.00 0.00 0.00 89 1010.4
20260904050545 51 247 0.0 3.0 0.00 0.00 0.00 89 1010.5
20260904045532 51 237 1.0 3.0 0.00 0.00 0.00 88 1010.5
20260904045037 51 246 2.0 3.0 0.00 0.00 0.00 89 1010.4
20260904044634 51 247 1.0 3.0 0.00 0.00 0.00 89 1010.5
20260904044024 51 229 2.0 4.0 0.00 0.00 0.00 89 1010.5
20260904043554 51 236 2.0 4.0 0.00 0.00 0.00 89 1010.5
20260904043143 51 248 1.0 3.0 0.00 0.00 0.00 89 1010.5
20260904042524 51 246 2.0 3.0 0.00 0.00 0.00 89 1010.5
20260904042017 51 230 1.0 3.0 0.00 0.00 0.00 90 1010.4
20260904041630 51 239 1.0 4.0 0.00 0.00 0.00 89 1010.5
20260904041026 51 294 1.0 4.0 0.00 0.00 0.00 89 1010.4
20260904040544 51 209 0.0 3.0 0.00 0.00 0.00 89 1010.3
20260904040138 51 230 2.0 4.0 0.00 0.00 0.00 90 1010.4
20260904035546 51 225 2.0 4.0 0.00 0.00 0.00 90 1010.4
20260904035032 51 238 0.0 1.0 0.00 0.00 0.00 89 1010.5
20260904034631 51 233 0.0 0.0 0.00 0.00 0.00 90 1010.4
20260904034024 51 248 0.0 0.0 0.00 0.00 0.00 90 1010.3
20260904033540 52 224 0.0 0.0 0.00 0.00 0.00 90 1010.4
20260904033145 51 215 0.0 0.0 0.00 0.00 0.00 90 1010.4
20260904032526 52 236 0.0 0.0 0.00 0.00 0.00 90 1010.4
20260904032025 52 229 0.0 0.0 0.00 0.00 0.00 90 1010.3
20260904031655 52 252 0.0 0.0 0.00 0.00 0.00 90 1010.3
20260904031037 52 244 0.0 0.0 0.00 0.00 0.00 90 1010.2
20260904030543 52 233 0.0 0.0 0.00 0.00 0.00 90 1010.3
20260904030220 52 233 0.0 0.0 0.00 0.00 0.00 90 1010.2
20260904025542 52 208 0.0 3.0 0.00 0.00 0.00 90 1010.2
20260904025031 52 220 0.0 3.0 0.00 0.00 0.00 91 1010.2
20260904024656 52 244 2.0 3.0 0.00 0.00 0.00 92 1010.1
20260904024023 52 249 2.0 3.0 0.00 0.00 0.00 92 1010.1
20260904023540 52 251 1.0 3.0 0.00 0.00 0.00 92 1010.1
20260904023154 52 254 1.0 4.0 0.00 0.00 0.00 91 1010.1
20260904022531 52 246 1.0 3.0 0.00 0.00 0.00 91 1010.1
20260904022045 52 228 1.0 3.0 0.00 0.00 0.00 92 1010.1
20260904021627 52 238 0.0 3.0 0.00 0.00 0.00 90 1010.0
20260904021033 52 239 1.0 3.0 0.00 0.00 0.00 91 1010.0
20260904020528 52 238 1.0 3.0 0.00 0.00 0.00 91 1010.0
20260904020159 52 233 1.0 3.0 0.00 0.00 0.00 91 1009.9
20260904015544 52 236 1.0 2.0 0.00 0.00 0.00 92 1010.1
20260904015050 52 232 1.0 3.0 0.00 0.00 0.00 92 1009.9
20260904014655 52 254 1.0 3.0 0.00 0.00 0.00 91 1009.9
20260904014023 52 248 0.0 0.0 0.00 0.00 0.00 91 1009.9
20260904013542 53 236 0.0 0.0 0.00 0.00 0.00 92 1009.9
20260904013135 53 241 0.0 0.0 0.00 0.00 0.00 92 1010.0
20260904012531 52 264 0.0 0.0 0.00 0.00 0.00 92 1009.9
20260904012045 52 250 0.0 0.0 0.00 0.00 0.00 92 1010.0
20260904011638 53 243 0.0 0.0 0.00 0.00 0.00 93 1010.0
20260904011034 53 244 0.0 0.0 0.00 0.00 0.00 92 1010.0
20260904010544 53 229 0.0 0.0 0.00 0.00 0.00 93 1010.0
20260904010154 52 229 0.0 0.0 0.00 0.00 0.00 92 1010.1
20260904005558 53 245 0.0 0.0 0.00 0.00 0.00 93 1009.9
20260904005028 52 236 0.0 0.0 0.00 0.00 0.00 94 1010.0
20260904004713 52 247 0.0 0.0 0.00 0.00 0.00 94 1010.1
20260904004043 52 242 0.0 0.0 0.00 0.00 0.00 94 1010.0
20260904003533 52 242 0.0 0.0 0.00 0.00 0.00 94 1009.9
20260904003136 52 242 0.0 0.0 0.00 0.00 0.00 93 1010.1
20260904002529 52 242 0.0 2.0 0.00 0.00 0.00 93 1010.1
20260904002045 52 242 1.0 3.0 0.00 0.00 0.00 93 1010.1
20260904001640 52 225 0.0 3.0 0.00 0.00 0.00 95 1010.2
20260904001033 52 262 0.0 2.0 0.00 0.00 0.00 95 1010.2
20260904000544 52 294 0.0 1.0 0.00 0.00 0.00 94 1010.2
20260904000228 52 262 0.0 1.0 0.00 0.00 0.00 94 1010.1
20260903235522 51 261 0.0 1.0 0.00 0.00 0.00 94 1010.1
20260903235045 51 286 0.0 2.0 0.00 0.00 0.00 93 1010.2
20260903234709 51 250 0.0 3.0 0.00 0.00 0.00 93 1010.1
20260903234025 51 267 1.0 3.0 0.00 0.00 0.00 93 1010.3
20260903233530 51 252 1.0 3.0 0.00 0.00 0.00 92 1010.2
20260903233205 51 240 1.0 3.0 0.00 0.00 0.00 92 1010.3
20260903232533 51 274 1.0 4.0 0.00 0.00 0.00 92 1010.2
20260903232037 51 291 1.0 5.0 0.00 0.00 0.00 91 1010.2
20260903231652 51 232 1.0 6.0 0.00 0.00 0.00 88 1010.3
20260903231034 51 193 3.0 8.0 0.00 0.00 0.00 88 1010.4
20260903230541 50 150 3.0 8.0 0.00 0.00 0.00 90 1010.5
20260903230141 50 351 2.0 7.0 0.00 0.00 0.00 88 1010.6
20260903225526 50 232 1.0 4.0 0.00 0.00 0.00 89 1010.7
20260903225033 50 192 1.0 6.0 0.00 0.00 0.00 88 1010.7
20260903224720 51 244 2.0 6.0 0.00 0.00 0.00 88 1010.7
20260903224025 51 218 2.0 6.0 0.00 0.00 0.00 87 1010.8
20260903223526 51 219 2.0 5.0 0.00 0.00 0.00 84 1010.8
20260903223124 52 223 3.0 7.0 0.00 0.00 0.00 81 1010.7
20260903222541 52 236 4.0 7.0 0.00 0.00 0.00 78 1010.5